निविदा सूची

  From 01.07.2019 onward E-procurement of HCL shall be done through NIC Portal https://eprocure.gov.in/eprocure/app || निविदाएं भी उपलब्ध हैं http://eprocure.gov.in/cppp/

इकाई का नाम जांच संख्या पूछताछ की तारीख छोटा शीर्षक समाप्ति दिनांक / समय निविदा दस्तावेज की लागत (रु।) ईएमडी (रु।) कैंसिल /डिस्चार्ज रिमार्क्स
KCC KCC/00269/2019-20 20-Sep-2019 Repair/Overhauling of Pressurizing units of Concentrator Plant Electrical sub-station 08-Oct-2019 2:30 PM 0.00 8000.00 NO 0
ICC ICC/00219/2019-20 19-Sep-2019 I-12077/LTE/CIVIL/KK FOR SIKKA GROUT FOR ELECTRIC MOTOR BLOWER FOUNDATION INSIDE. 04-Oct-2019 11:00 AM 0.00 0.00 NO
ICC ICC/00220/2019-20 19-Sep-2019 I-12076/LTE/CIVIL/KK FOR CR SHEET FOR CIVIL DEPARTMENT. 04-Oct-2019 11:00 AM 0.00 0.00 NO
Corporate Office CO/00019/2019-20 19-Sep-2019 Designing and construction of India Pavilion in IMARC2019 conference to be held at Melbourne, Australia 03-Oct-2019 3:00 PM 0.00 12000.00 NO
KCC KCC/00271/2019-20 19-Sep-2019 RFQ-8320 "Procurement of Springs and Spares for Loco" 11-Oct-2019 2:30 PM 0.00 0.00 NO
MCP MCP/00153/2019-20 19-Sep-2019 M14513 ANNUAL MAINTENANCE FOR TELEPHONE EXCHANGE (STE) 26-Sep-2019 3:00 PM 0.00 0.00 NO
KCC KCC/00272/2019-20 19-Sep-2019 RFQ-8257 "Procurement of Power Cable & Control Cable, thru' CPPP" 21-Oct-2019 2:00 PM 0.00 15300.00 NO
KCC KCC/00270/2019-20 18-Sep-2019 Contract for outsourcing of Repairing of bucket for Model 824 EIMCO Loader at KCC Mines for a period of one year. 07-Oct-2019 2:30 PM 0.00 3200.00 NO
KCC KCC/00267/2019-20 18-Sep-2019 Whitewashing, distempering etc in newly allotted quarters (All Types) & Other areas of KCC & KCCM Township. 01-Oct-2019 2:30 PM 0.00 7000.00 NO 0
ICC ICC/00211/2019-20 18-Sep-2019 Enquiry No. : I-12011/WEB/CONT/BT (Vehicles for Surda Mine and Mosaboni Concentrator Plant for one year) 09-Oct-2019 2:00 PM 0.00 19150.00 NO
ICC ICC/00212/2019-20 18-Sep-2019 NIT-I-12122/NIC/REF/DIS, PROCUREMENT OF H. S. GELATINE (TECH). 07-Oct-2019 11:00 AM 0.00 8400.00 NO
ICC ICC/00213/2019-20 18-Sep-2019 NIT-I-12043/SRD/LTE/DIS, Aluminium Synthetic Roller 27-Sep-2019 11:00 AM 0.00 0.00 NO
ICC ICC/00214/2019-20 18-Sep-2019 NIT-I-12027/CPM/LTE/DIS, PROCUREMENT OF EPDM RUBBER 'O' RING 04-Oct-2019 11:00 AM 0.00 0.00 NO
GCP GCP/00012/2019-20 18-Sep-2019 403 Kaldo Furnace Complete Debricking and Relining Job Contract at GCP 09-Oct-2019 3:00 PM 0.00 12400.00 NO
KCC KCC/00268/2019-20 18-Sep-2019 Fabrication of One number Explosive Van on TATA Chassis Model LPT 1613. 10-Oct-2019 2:30 PM 0.00 9650.00 NO
ICC ICC/00215/2019-20 18-Sep-2019 NIT-I-12030/McSP/LTE/DIS, NRV-Compressor 04-Oct-2019 11:00 AM 0.00 0.00 NO
ICC ICC/00216/2019-20 18-Sep-2019 NIT-I-12109/R&D/LTE/DIS, Chemicals 11-Oct-2019 11:00 AM 0.00 0.00 NO
ICC ICC/00217/2019-20 18-Sep-2019 NIT-I-12113/GRG/LTE/DIS, Tyre&Tube 11-Oct-2019 11:00 AM 0.00 0.00 NO
ICC ICC/00218/2019-20 18-Sep-2019 NIT-I-12114/GRG/SO-PSU/DIS, Accelerator-Cable 11-Oct-2019 11:00 AM 0.00 0.00 NO
ICC ICC/00206/2019-20 17-Sep-2019 I-12055/LTE/M.SHOP/KK FOR V-BELT FOR CENTRIFUGE AND COMPRESSORS. 24-Sep-2019 11:00 AM 0.00 0.00 NO
ICC ICC/00207/2019-20 17-Sep-2019 I-12047/LTE/ELECT./KK FOR SUPER ENAMEL COPPER WIRE FOR ARMATURE WINDING SHOP. 01-Oct-2019 11:00 AM 0.00 0.00 NO
KCC KCC/00264/2019-20 17-Sep-2019 RFQ-8274 PROCUREMENT OF CERAMIC VACUUM FILTER 10-Oct-2019 2:30 PM 0.00 0.00 NO
KCC KCC/00265/2019-20 17-Sep-2019 RFQ-8312 Procurement of Piston Rod for Pneumatic Rock Breaker 04-Oct-2019 2:30 PM 0.00 0.00 NO IT IS AN LTE TENDER SO ITS ONLY FOR SELECTED BIDDERS
KCC KCC/00266/2019-20 17-Sep-2019 RFQ-8277 Procurement of UPS Batteries 11-Oct-2019 2:30 PM 0.00 0.00 NO IT IS AN LTE TENDER SO ONLY SELECTED BIDDERS ARE INVITED
GCP GCP/00011/2019-20 17-Sep-2019 402 Bearing for 15 T Refinery Crane 09-Oct-2019 3:00 PM 0.00 0.00 NO
ICC ICC/00208/2019-20 17-Sep-2019 PROCUREMENTOF M.S PLATE FOR FS MECH,ELECT,CPM,POWER PLANT 11-Oct-2019 11:00 AM 0.00 31200.00 NO
ICC ICC/00209/2019-20 17-Sep-2019 Procurement of M.S Seamless Pipes & Fittings for acid transfer lines in SAP 11-Oct-2019 11:00 AM 0.00 4381.00 NO
ICC ICC/00210/2019-20 17-Sep-2019 PROCUREMENT OF TUBE PANELS 6a, 6b AND 7 OF WASTE HEAT BOILER 11-Oct-2019 11:00 AM 0.00 7300.00 NO
ICC ICC/00201/2019-20 16-Sep-2019 I-12054/LTE/STORES/KK FOR 60W BULBS. 01-Oct-2019 11:00 AM 0.00 0.00 NO
ICC ICC/00202/2019-20 16-Sep-2019 I-12110/LTE/SMELTER/KK FOR FIRE WOOD. 24-Sep-2019 11:00 AM 0.00 0.00 NO
KCC KCC/00263/2019-20 16-Sep-2019 Job Contract for Pipe line painting work as per ISO Specification at Kolihan Copper Mine 03-Oct-2019 2:30 PM 0.00 4300.00 NO
MCP MCP/00152/2019-20 16-Sep-2019 M14576 REVAMPING OF DAMAGED CABIN OF DOZER 25-Sep-2019 3:00 PM 0.00 3000.00 NO
ICC ICC/00203/2019-20 16-Sep-2019 I-12112/LTE/F.S.MECH/KK FOR SERVO GEM SUPER H.T GREASE. 24-Sep-2019 11:00 AM 0.00 0.00 NO
ICC ICC/00204/2019-20 16-Sep-2019 I-12073/LTE/SURDA/KK FOR MS FLAT & GI PLAIN SHEET FOR SURDA MINE. 01-Oct-2019 11:00 AM 0.00 0.00 NO
ICC ICC/00205/2019-20 16-Sep-2019 I-12063/LTE/M. SHOP/KK FOR CUTTING TOOLS FOR MACHINE SHOP. 01-Oct-2019 11:00 AM 0.00 0.00 NO
KCC KCC/00257/2019-20 14-Sep-2019 Providing spares for sewerage treatment plant during 2019-20 (A.R.C.) 23-Sep-2019 2:30 PM 0.00 4900.00 NO
KCC KCC/00258/2019-20 14-Sep-2019 RFQ-8251-R "Procurement of HT-Cables, thru' CPPP" 14-Oct-2019 2:00 PM 0.00 14000.00 NO
KCC KCC/00259/2019-20 14-Sep-2019 RFQ-8248-R "Procurement of Siemens MCC Spares thru' CPPP" 17-Oct-2019 2:00 PM 0.00 22000.00 NO
KCC KCC/00260/2019-20 14-Sep-2019 RFQ- 8311 Procurement of “Crusher Top Mantle and Feed Plates 30-Sep-2019 2:00 PM 0.00 4100.00 NO
KCC KCC/00261/2019-20 14-Sep-2019 RFQ-8310 Procurement of “Recon Engine for loader WA 500 for KCC (Mechanical) 03-Oct-2019 2:00 PM 0.00 20000.00 NO
TCP TCP/00018/2019-20 14-Sep-2019 SOLUBLE OIL VACUUM BLOWER 07-Oct-2019 3:00 PM 0.00 2500.00 NO
MCP MCP/00150/2019-20 14-Sep-2019 M-14547 Job Contract - PROVIDING ASSISTANCE FOR OPERATION OF DE-WATERING PUMPS & PIPE LINES AT MINES IN SHIFTS INCLUDING SUNDAYS.for the period Oct-2019 to june 2020 07-Oct-2019 3:00 PM 0.00 22300.00 NO
MCP MCP/00151/2019-20 14-Sep-2019 M14548 Annual Job Contract - PROVIDING ASSISTANCE FOR SHIFTING DISMANTLING,INSTALLATION AND MAINTENANCE OF PUMPS, PIPE LINES AND VALVES OF MINES DEWATERINGAT MINES AND ENVIRONMENT PUMPS LOCATED AT BHIMJORI AND KHURSIPAR DUMP 07-Oct-2019 3:00 PM 0.00 12900.00 NO
KCC KCC/00262/2019-20 14-Sep-2019 A.R.C. for Refilling & Refurbishing of Toners for the year 2019-2020 03-Oct-2019 2:30 PM 0.00 1600.00 NO
ICC ICC/00192/2019-20 13-Sep-2019 NIT-I-12050/MSB/LTE/DIS, PROCUREMENT OF LHD SPARES 27-Sep-2019 11:00 AM 0.00 0.00 NO
ICC ICC/00193/2019-20 13-Sep-2019 NIT-I-12052/MSB/LTE/DIS, PROCUREMENT OF CABLE COMPLETET CAPLAMP 27-Sep-2019 11:00 AM 0.00 0.00 NO
ICC ICC/00194/2019-20 13-Sep-2019 NIT-I-12049/MSB/LTE/DIS, B-TYPE-PULLEY 24-Sep-2019 11:00 AM 0.00 0.00 NO
ICC ICC/00195/2019-20 13-Sep-2019 NIT-I-12051/MSB/LTE/DIS, Welding-Electrodes 27-Sep-2019 11:00 AM 0.00 0.00 NO
ICC ICC/00196/2019-20 13-Sep-2019 NIT-I-12048/MSB/LTE/DIS, PROCUREMENT OF ELECTRIC MOTOR CHECKER 27-Sep-2019 11:00 AM 0.00 0.00 NO
ICC ICC/00197/2019-20 13-Sep-2019 NIT-I-12031/MS/LTE/DIS, NEV-Assembly 24-Sep-2019 11:00 AM 0.00 0.00 NO
ICC ICC/00198/2019-20 13-Sep-2019 NIT-I-11809-MS-LTE-DIS, Gear Box 24-Sep-2019 11:00 AM 0.00 0.00 NO
ICC ICC/00199/2019-20 13-Sep-2019 I-12060/LTE/ELECT./KK FOR ISOLATOR FOR 33KV YARD. 27-Sep-2019 11:00 AM 0.00 0.00 NO
MCP MCP/00149/2019-20 13-Sep-2019 MCP14525 REQUIREMENT OF FLEXIBLE COUPLINGS 04-Oct-2019 3:00 PM 0.00 0.00 NO
KCC KCC/00254/2019-20 13-Sep-2019 RFQ-8220-R Procurement of Power Cables, thru' CPPP 10-Oct-2019 2:00 PM 0.00 15500.00 NO
KCC KCC/00254/2019-20 13-Sep-2019 ARC for Providing and Fixing of Sanitary and Water supply Fittings etc. at KCC & KCM Townships during 2019-20. 23-Sep-2019 2:30 PM 0.00 9500.00 NO
KCC KCC/00256/2019-20 13-Sep-2019 Fencing Job near pass section to heavy gate and main gate area at KCC plant area 03-Oct-2019 2:30 PM 0.00 3200.00 NO
Corporate Office CO/00018/2019-20 13-Sep-2019 DEVELOPMENT OF UNDERGROUND MINE AND PRODUCTION OF ORE FROM STOPES, AT CHAPRI, INDIAN COPPER COMPLEX 30-Oct-2019 3:00 PM 5600.00 5000000.00 NO
ICC ICC/00200/2019-20 13-Sep-2019 I-12064/LTE/SURDA/KK FOR LED TUBE LIGHT FOR SURDA MINES. 27-Sep-2019 11:00 AM 0.00 0.00 NO
TCP TCP/00017/2019-20 13-Sep-2019 22KV 4 POLE STRUCTURE REPAIRING 23-Sep-2019 3:00 PM 0.00 2200.00 NO
GCP GCP/00010/2019-20 13-Sep-2019 401 Hiring of 4.0TPH FO/LDO fired boiler with operator 04-Oct-2019 3:00 PM 0.00 20000.00 NO
ICC ICC/00183/2019-20 12-Sep-2019 I-12040/MSB/LTE/DIS, PROCUREMENT OF BRACKET COMPLETE 27-Sep-2019 11:00 AM 0.00 0.00 NO
ICC ICC/00184/2019-20 12-Sep-2019 I-12046/MSB/LTE/DIS, PROCUREMENT OF BREATHING APPRATUS. 27-Sep-2019 11:00 AM 0.00 0.00 NO
ICC ICC/00185/2019-20 12-Sep-2019 I-12035/MS/LTE/DIS, PROCUREMENT OF DRILL TWIST 24-Sep-2019 11:00 AM 0.00 0.00 NO
ICC ICC/00186/2019-20 12-Sep-2019 I-12069/LTE/SURDA/KK FOR MS ANGLE & PLAIN ROD 25MM FOR SURDA MINES. 24-Sep-2019 11:00 AM 0.00 0.00 NO
ICC ICC/00187/2019-20 12-Sep-2019 I-12057/LTE/ELECT./KK FOR LYRA CONTACT FOR DRAW OUT TYPE MCC PANEL OF FS ELECTRICAL. 24-Sep-2019 11:00 AM 0.00 0.00 NO
ICC ICC/00188/2019-20 12-Sep-2019 I-12068/LTE/SURDA/KK FOR CLEAR SHEET FOR SURDA MINE. 24-Sep-2019 11:00 AM 0.00 0.00 NO
ICC ICC/00189/2019-20 12-Sep-2019 I-12067/LTE/SURDA/KK FOR ELECTRICAL INSULATION TAPE FOR SURDA MINES. 24-Sep-2019 11:00 AM 0.00 0.00 NO
ICC ICC/00190/2019-20 12-Sep-2019 I-12070/LTE/SURDA/KK for MICA TUBE AND TAPES FOR LOCO RESISTANCE OF SURDA MINES 27-Sep-2019 11:00 AM 0.00 0.00 NO
ICC ICC/00191/2019-20 12-Sep-2019 I-12074/LTE/SURDA/KK FOR CU & ALUMINUM LUNGS FOR SURDA MINE. 27-Sep-2019 11:00 AM 0.00 0.00 NO
ICC ICC/00177/2019-20 11-Sep-2019 Enquiry No.I-12020/MSB/LTE/PSD. PROCUREMENT OF EAR PLUG and HAND GLOVES 20-Sep-2019 11:00 AM 0.00 0.00 NO
KCC KCC/00250/2019-20 11-Sep-2019 PUR/2019/Steel/03 /RFQ-8305 Procurement of Steels 03-Oct-2019 2:00 PM 0.00 9400.00 NO
KCC KCC/00251/2019-20 11-Sep-2019 PUR/2019/GS/21 /RFQ- 8250 Procurement of New Furnitures 26-Sep-2019 2:00 PM 0.00 16000.00 NO
KCC KCC/00252/2019-20 11-Sep-2019 PUR/2019/GS/19 /RFQ- 8275 Procurement of Rubber Lined Pipes and Bends 30-Sep-2019 2:00 PM 0.00 9000.00 NO
KCC KCC/00253/2019-20 11-Sep-2019 PUR/2019/GS/08 /RFQ- 8241 Procurement of G.I.Pipes 26-Sep-2019 2:00 PM 0.00 5600.00 NO
ICC ICC/00178/2019-20 11-Sep-2019 NIT-I-12042/NIC/SURDA/DIS, PROCUREMENT OF BARBED WIRE FENCING FOR SURDA MINE 01-Oct-2019 11:00 AM 0.00 4200.00 NO
ICC ICC/00179/2019-20 11-Sep-2019 NIT-I-12032/NIC/REF/DIS, PROCUREMENT OF NEW LEAD ANODES 01-Oct-2019 11:00 AM 0.00 35000.00 NO
ICC ICC/00179/2019-20 11-Sep-2019 Enquiry No. : I-12098/STE/MSB/PSD. PROCUREMENT OF SPARES FOR CVP-80-214-80 SA (HC) 20-Sep-2019 11:00 AM 0.00 0.00 NO
ICC ICC/00181/2019-20 11-Sep-2019 Enquiry No. I-12099/STE/MSB/PSD PROCUREMENT OF SPARES FOR CHP-330-100 (HC) 20-Sep-2019 11:00 AM 0.00 0.00 NO
ICC ICC/00182/2019-20 11-Sep-2019 I-12065/LTE/SURDA/KK FOR PORTLAND CEMENT FOR SURDA MINE. 24-Sep-2019 11:00 AM 0.00 0.00 NO
KCC KCC/00249/2019-20 10-Sep-2019 RFQ-8260(R) Procurement of Tail Rope Attachment for Skip, thru' CPPP 30-Sep-2019 2:00 PM 0.00 26800.00 NO
ICC ICC/00175/2019-20 10-Sep-2019 Enquiry No I-11873/WEB/CONT/BT (Fabrication of cable racks and dressing of cables at Mosabani Plant) 01-Oct-2019 2:00 PM 0.00 6020.00 NO
MCP MCP/00148/2019-20 10-Sep-2019 M14511 HIRING OF BUS SERVICE FOR GONDIA FOR ONE HALF YEAR FROM 01.10.2019 23-Sep-2019 3:00 PM 0.00 20000.00 NO
ICC ICC/00172/2019-20 09-Sep-2019 Enquiry No. I-11872/nic/MSB/PSD. PROCUREMENT OF PIPELINE ACCESSORIES 01-Oct-2019 11:00 AM 0.00 3812.00 NO
ICC ICC/00173/2019-20 09-Sep-2019 Enquiry No. I-11771/nic/MSB/PSD. PROCUREMENT OF SPARES FOR LHD 01-Oct-2019 11:00 AM 0.00 6980.00 NO
ICC ICC/00174/2019-20 09-Sep-2019 Enquiry No. I-11893/nic/MSB/PSD. PROCUREMENT OF AUTOMATIC CONTRIVANCE FOR VERTICAL PUMP 01-Oct-2019 11:00 AM 0.00 3600.00 NO
KCC KCC/00248/2019-20 09-Sep-2019 Outsourcing of Mechanical Maintenance of Ore Hoisting System in General Shift of Khetri Copper Complex 30-Sep-2019 2:30 PM 0.00 13500.00 NO
ICC ICC/00167/2019-20 07-Sep-2019 Enquiry No : I-11742/WEB/CONT/BT (HIRING OF JCB LOADER) 27-Sep-2019 2:00 PM 0.00 7660.00 NO
ICC ICC/00168/2019-20 07-Sep-2019 PROCUREMENT OF COPPER PIPE FOR RUNNING REQUIREMENT OF SMELTER PLANT.-LTE 20-Sep-2019 11:00 AM 0.00 0.00 NO
ICC ICC/00169/2019-20 07-Sep-2019 PROCUREMENT OF UPS-LTE 20-Sep-2019 11:00 AM 0.00 0.00 NO
ICC ICC/00170/2019-20 07-Sep-2019 Enquiry No : I-11986/WEB/CONT/BT (Engagement of NGO for implementation of Civil related CSR&S activities) 27-Sep-2019 2:00 PM 0.00 0.00 NO
ICC ICC/00170/2019-20 07-Sep-2019 Enquiry No : I-11986/WEB/CONT/BT (Engagement of NGO for implementation of Civil related CSR&S activities) 27-Sep-2019 2:00 PM 0.00 0.00 NO
ICC ICC/00165/2019-20 06-Sep-2019 I-12034/CS/LTE/DIS, Hand-Gloves 20-Sep-2019 11:00 AM 0.00 0.00 NO
ICC ICC/00166/2019-20 06-Sep-2019 Tender-I-12029/REF/LTE/DIS, Synthetic-Sewing-Thread 20-Sep-2019 11:00 AM 0.00 0.00 NO
KCC KCC/00242/2019-20 06-Sep-2019 P/F of Floor Tiles and other Misc Civil jobs of Badminton Court in Copper Club 26-Sep-2019 2:30 PM 0.00 2300.00 NO
KCC KCC/00243/2019-20 06-Sep-2019 Making of wooden Flooring Badminton Court AT Copper Club in Khetrinagar Township 26-Sep-2019 2:30 PM 0.00 4500.00 NO
KCC KCC/00244/2019-20 06-Sep-2019 KCC/PUR/19/Weld/01/RFQ-8301 01-Oct-2019 2:30 PM 0.00 0.00 NO
KCC KCC/00245/2019-20 06-Sep-2019 RFQ-8247 Procurement of Bearings for Loco-Loader & GB Car, thru' CPPP 26-Sep-2019 2:00 PM 0.00 5300.00 NO
MCP MCP/00147/2019-20 06-Sep-2019 Annual Rate Contract for supply of Spares for TATA vehicles. 23-Sep-2019 3:00 PM 0.00 12000.00 NO
KCC KCC/00246/2019-20 06-Sep-2019 To supply 15 Nos. Electrician of skilled Category (3432 mandays for Under Ground Mines & 1248 mandays for other than underground Mines) in twelve months to undertake the jobs at various locations. 30-Sep-2019 2:30 PM 0.00 39000.00 NO
KCC KCC/00247/2019-20 06-Sep-2019 RFQ-8243 Roller and Idlers for Conveyor. 26-Sep-2019 2:00 PM 0.00 8900.00 NO
ICC ICC/00163/2019-20 05-Sep-2019 Notice Inviting Tender for Crushing of Copper reverts to 5mm & less than 5mm size & Filling the crushed reverts into containers/bags 24-Sep-2019 2:00 PM 0.00 22980.00 NO
ICC ICC/00164/2019-20 05-Sep-2019 AMC OF ALTERNATIVE POWER PLANT WITH OPERATION OF DM PLANT 24-Sep-2019 2:00 PM 0.00 24780.00 NO
KCC KCC/00237/2019-20 04-Sep-2019 Patrolling, Maintenance and laying/dismantling of Track line / pipe line at KCM Surface and Underground 23-Sep-2019 2:30 PM 0.00 17000.00 NO
KCC KCC/00238/2019-20 04-Sep-2019 ARC of Different Activities of Heavy Maintenance Electrical Department 30-Sep-2019 2:30 PM 0.00 30000.00 NO
KCC KCC/00239/2019-20 04-Sep-2019 Outsourcing of Shift maintenance of ore handling system including operation of Crusher and Conveyor at Khetri Mine. 03-Oct-2019 2:30 PM 0.00 53000.00 NO
KCC KCC/00240/2019-20 04-Sep-2019 KCC/PUR/18/GS/47/RFQ-8298 26-Sep-2019 2:30 PM 0.00 0.00 NO
KCC KCC/00241/2019-20 04-Sep-2019 KCC/PUR/19/ST/04/RFQ-8297 26-Sep-2019 2:30 PM 0.00 0.00 NO
Corporate Office CO/00017/2019-20 04-Sep-2019 Renewal of Technical Support Services (Premium Software Support) for Dell-EMC NetWorker Enterprise Backup Software 25-Sep-2019 3:00 PM 0.00 0.00 NO
KCC KCC/00235/2019-20 03-Sep-2019 RFQ-8282 PROCUREMENT OF ROLLER CHAIN 20-Sep-2019 3:00 PM 0.00 0.00 NO
KCC KCC/00236/2019-20 03-Sep-2019 RFQ-8287 PROCUREMENT OF MINER CAP LAMP BULB 24-Sep-2019 3:00 PM 0.00 0.00 NO
ICC ICC/00162/2019-20 03-Sep-2019 PROCUREMENT OF BARREL FOR SLIME EXPORT 24-Sep-2019 11:00 AM 0.00 3400.00 NO
KCC KCC/00234/2019-20 02-Sep-2019 RFQ-8267 Procurement of "Alternative DC Drive & PLC System for Service Shaft Winder" thru' CPPP 03-Oct-2019 2:00 PM 0.00 16000.00 NO
KCC KCC/00233/2019-20 30-Aug-2019 RFQ-8278 HYDRAULIC SPARES FOR EIMCO LHD NO.51 20-Sep-2019 2:30 PM 0.00 0.00 NO
ICC ICC/00160/2019-20 30-Aug-2019 PROCUREMENT OF STACK MONITORING INSTRUMENTATION SPARES 20-Sep-2019 11:00 AM 0.00 5500.00 NO
ICC ICC/00159/2019-20 29-Aug-2019 Enquiry No. : I-11736A/nic/MSB/PSD.PROCUREMENT OF M S PLATE 20-Sep-2019 11:00 AM 0.00 11450.00 NO
ICC ICC/00155/2019-20 28-Aug-2019 Enquiry No I-11747/WEB/CONT/BT (Heat Insulation jobs for Furnace OIL TANK NO 1) 04-Oct-2019 2:00 PM 0.00 5112.00 NO
KCC KCC/00228/2019-20 28-Aug-2019 RFQ-8260 Procurement of Tail Rope Attachment thru' CPPP 30-Sep-2019 2:00 PM 0.00 26800.00 NO
ICC ICC/00156/2019-20 28-Aug-2019 Enquiry No I-11859/WEB/CONT/BT (Complete Overhauling, Testing of Transformer of Surda Mine) 01-Oct-2019 2:00 PM 0.00 18680.00 NO
ICC ICC/00154/2019-20 27-Aug-2019 Enquiry No I-11988/WEB/CONT/BT (Engagement of NGO for carrying out CSR&S activities for FY 2019-20 ) 27-Sep-2019 2:00 PM 0.00 0.00 NO
KCC KCC/00227/2019-20 26-Aug-2019 Making of C.C. Road from electrical substation to koepe winder etc &Making of rock braker foundation at 64 ML and Sump foundations at 0.0 ML in KCM 27-Sep-2019 2:30 PM 0.00 18000.00 NO 0
ICC ICC/00143/2019-20 23-Aug-2019 Enquiry No. I-11804/nic/MSB/PSD. PROCUREMENT OF LONG DELAY and SHORT DELAY DETONATORS 24-Sep-2019 11:00 AM 0.00 33600.00 NO
ICC ICC/00146/2019-20 23-Aug-2019 Enquiry No. I-11832/nic/CSR/PSD.PROCUREMENT OF 25 KVA DG SET 01-Oct-2019 11:00 AM 0.00 4950.00 NO
ICC ICC/00147/2019-20 23-Aug-2019 Enquiry No. I-11871/nic/MSB/PSD. PROCUREMENT OF 4 INCH HDPE PIPE 24-Sep-2019 11:00 AM 0.00 4940.00 NO
KCC KCC/00223/2019-20 23-Aug-2019 RFQ-8269 Procurement of Hydraulic Motor for HRT Tail 24-Sep-2019 2:30 PM 0.00 0.00 NO
KCC KCC/00224/2019-20 23-Aug-2019 RFQ-8270 Procurement of Air Hose pipe for operation Eimco-824 Loader & Air Hose Pipe 24-Sep-2019 2:30 PM 0.00 0.00 NO
KCC KCC/00217/2019-20 22-Aug-2019 RFQ-8256 PROCUREMENT OF PNEUMATIC PINCH VALVE FOR CERAMIC FILTER 27-Sep-2019 3:00 PM 0.00 0.00 NO
KCC KCC/00218/2019-20 22-Aug-2019 KCC/PUR/19/ST/03/RFQ-8264 20-Sep-2019 2:30 PM 0.00 0.00 NO
KCC KCC/00219/2019-20 22-Aug-2019 KCC/PUR/19/GS/18/RFQ-8265 24-Sep-2019 2:30 PM 0.00 0.00 NO
ICC ICC/00136/2019-20 21-Aug-2019 I-11942/NIC/CPM/DIS, PROCUREMENT OF CASING FOR SO2 BLOWER OF SAP 27-Sep-2019 11:00 AM 0.00 15000.00 NO
ICC ICC/00139/2019-20 21-Aug-2019 I-11976/NIC/CS/DIS, PROCUREMENT OF BARYTES NATURAL BARIUM SULPHATE 27-Sep-2019 11:00 AM 0.00 8820.00 NO
KCC KCC/00212/2019-20 17-Aug-2019 RFQ-8259 Procurement of "Winding Wire Rope" thru' CPPP 26-Sep-2019 2:00 PM 0.00 22300.00 NO
KCC KCC/00213/2019-20 17-Aug-2019 RFQ-8258 Procurement of " I C T P " thru' CPPP 23-Sep-2019 2:00 PM 0.00 3500.00 NO
GCP GCP/00009/2019-20 13-Aug-2019 GER399 Annual Maintenance contract for Refractory Work at GCP 30-Sep-2019 3:00 PM 0.00 11000.00 NO
ICC ICC/00128/2019-20 12-Aug-2019 Enquiry No. I-11555/nic/MSB/PSD.POWER CONTRACTORS and RELAYS – L AND T 24-Sep-2019 11:00 AM 0.00 2885.00 NO
ICC ICC/00130/2019-20 12-Aug-2019 I-11793/nic/CS/DIS, PROCUREMENT OF AVITONE “A” CHEMICAL 23-Sep-2019 11:00 AM 0.00 12559.00 NO
Corporate Office CO/00016/2019-20 10-Aug-2019 DEVELOPMENT, OPERATION AND MAINTENANCE OF SURDA MINE, JHARKHAND, INDIA 24-Sep-2019 3:00 PM 5600.00 5000000.00 NO
ICC ICC/00125/2019-20 10-Aug-2019 PROCUREMENT OF GEAR BOX OF SCF ELECTRODE HOISTING SYSTEM 20-Sep-2019 11:00 AM 0.00 4000.00 NO
ICC ICC/00126/2019-20 10-Aug-2019 I-11886/NIC/ERP/DIS, PROCUREMENT OF ENERGY CHAIN WITH ACCESSORIES 26-Sep-2019 11:00 AM 1311045.00 13110.00 NO
ICC ICC/00127/2019-20 10-Aug-2019 I-11642/NIC/REFA/DIS, PROCUREMENT OF AUTO WEIGHER SPOON AND LAUNDER AT CAST HOUSE 26-Sep-2019 11:00 AM 298529.00 2985.00 NO
KCC KCC/00201/2019-20 09-Aug-2019 KCC/PUR/19/GS/17/RFQ-8237 20-Sep-2019 2:30 PM 0.00 0.00 NO
GCP GCP/00007/2019-20 08-Aug-2019 GER397 Hiring of Vehicles for daily transportation of Executives for GCP 20-Sep-2019 3:00 PM 0.00 26000.00 NO
ICC ICC/00119/2019-20 07-Aug-2019 Enquiry No. I-11806/nic/MSB/PSD. PROCUREMENT OF LINER PLATE FOR JAW CRUSHER 24-Sep-2019 11:00 AM 0.00 8361.00 NO
KCC KCC/00193/2019-20 05-Aug-2019 AMC for Troubleshooting, Repair and maintenance of Rockwell Automation make PLC used for 0ml Ore crushing and hoisting system at Khetri Copper Mine. 23-Sep-2019 2:30 PM 0.00 1100.00 NO
KCC KCC/00181/2019-20 17-Jul-2019 RFQ-8211 Procurement of Manila rope 20-Sep-2019 2:30 PM 0.00 0.00 NO
KCC KCC/00076/2019-20 21-May-2019 Providing and fixing of Pre coated G.I. Sheets in Concentrator plant, KCC 18-Oct-2019 2:30 PM 0.00 200000.00 NO 0